GFSSW_850_temp_087.txt.gz
Temp
19 19 20 20 20 21 21 22 22 23 23 23 24 24 25 26 26 28 29 29 29 28 27 27 25 23 22 22 23 23 22 22 25 27 27 30 27 28 28 25 25 25 26 26 23
19 19 20 20 20 21 21 21 22 22 23 23 24 24 25 25 27 29 29 29 29 28 27 27 26 24 22 23 23 23 20 23 25 27 28 30 28 29 27 25 26 25 25 24 22
19 19 19 20 20 21 21 21 22 22 22 23 24 24 24 25 26 29 29 29 29 28 27 27 26 25 22 25 25 25 23 26 28 29 31 29 29 29 26 25 26 25 25 24 23
18 18 19 19 20 20 21 21 21 22 22 22 23 24 24 25 25 28 29 28 28 28 27 26 26 25 24 25 28 26 27 28 29 30 30 29 30 28 28 29 30 28 26 24 23
17 17 18 18 19 19 20 21 21 21 22 22 23 23 23 23 26 28 28 28 27 28 28 27 27 26 25 26 27 26 27 29 30 31 30 30 28 28 28 30 30 28 25 24 24
17 17 17 18 18 19 20 20 21 21 22 22 22 22 21 21 27 27 27 27 27 27 27 27 27 27 26 26 26 28 28 28 30 31 30 28 28 29 30 29 27 27 26 24 24
16 16 17 17 18 19 20 20 21 21 21 22 22 21 21 24 27 27 27 27 27 26 26 27 27 26 26 26 28 28 27 26 28 29 28 31 27 26 30 28 26 25 26 25 25
15 15 16 16 17 18 19 21 21 21 22 22 22 21 20 25 25 26 27 28 27 27 27 27 26 25 26 27 27 27 24 24 27 27 30 30 26 29 31 27 25 25 24 25 25
14 14 15 16 16 17 19 20 20 21 21 22 22 20 21 24 24 26 25 25 26 26 27 26 25 26 26 24 22 21 23 24 25 28 28 28 26 29 29 27 25 25 24 24 24
14 14 15 16 16 17 19 19 20 20 21 21 19 19 22 24 23 24 24 25 25 26 25 24 25 22 20 21 21 22 23 22 23 26 26 26 26 28 28 27 26 25 24 24 24
13 14 15 16 16 18 19 19 19 19 21 18 20 18 21 24 23 23 24 24 24 24 21 24 21 20 22 21 24 23 24 23 24 26 27 26 25 27 28 27 27 26 25 25 25
12 13 14 15 16 17 18 17 15 13 13 20 20 20 22 21 20 25 24 23 23 21 22 22 21 23 24 23 24 23 23 22 23 26 25 24 25 25 26 27 27 26 25 25 26
12 13 14 15 16 17 17 16 16 16 16 19 21 20 23 22 20 23 23 24 22 22 22 23 24 25 25 24 24 23 22 23 23 25 25 25 24 25 26 28 28 27 27 27 28
12 13 14 15 16 17 17 17 17 18 13 17 21 23 23 23 21 25 25 23 23 22 21 22 25 25 25 24 24 21 24 25 25 24 24 25 22 23 26 24 25 28 27 27 28
12 13 13 14 15 16 17 18 18 18 16 22 22 24 23 22 25 24 25 23 22 23 23 22 24 23 24 25 25 24 25 24 24 23 23 24 21 22 24 25 25 26 27 30 31
13 13 13 14 16 16 17 18 18 14 16 20 22 21 20 22 23 24 25 25 25 23 23 22 26 25 25 26 25 26 26 22 19 19 20 22 21 22 24 25 26 27 31 30 28
14 14 14 16 17 17 17 18 13 14 18 19 19 19 18 21 21 23 23 23 21 21 21 23 24 26 26 26 25 26 21 20 20 19 21 21 22 22 24 26 25 27 30 31 28
14 15 17 18 17 17 17 14 16 17 17 19 19 18 20 20 21 21 21 21 21 23 20 21 21 24 26 24 24 22 20 18 21 20 23 20 21 24 26 26 28 29 31 30 27
14 16 17 18 17 17 17 12 14 15 18 18 17 18 18 20 20 19 19 21 22 23 23 20 21 26 26 26 25 25 22 22 21 19 19 20 22 24 25 24 24 24 27 28 27
14 16 17 17 17 16 12 12 14 16 18 19 17 19 17 19 19 18 19 22 21 23 23 23 21 24 25 26 26 25 24 24 19 22 22 20 22 21 23 23 22 23 24 26 27
13 16 17 17 16 16 11 11 14 18 18 18 18 18 18 19 19 19 20 21 22 22 21 22 19 22 24 23 23 24 23 22 20 18 20 20 20 20 23 21 20 19 20 22 23
13 10 16 16 14 9 11 13 18 18 20 17 18 17 18 19 19 20 20 21 24 22 21 21 17 19 23 24 25 24 23 23 22 21 16 18 20 21 21 21 21 21 20 21 20
11 12 15 15 11 10 12 15 17 17 18 19 19 20 20 20 19 20 20 22 22 22 21 21 17 17 19 22 24 25 25 22 19 17 18 20 21 20 20 21 22 21 22 22 23
10 8 15 15 14 13 13 13 15 18 18 18 18 18 17 18 18 18 18 21 21 22 22 20 16 18 18 20 21 20 23 23 20 19 18 19 22 22 20 20 19 22 26 27 26
10 9 11 9 11 11 12 13 14 14 18 18 17 17 17 17 15 16 17 17 20 22 21 18 19 16 18 19 20 22 22 23 21 20 21 22 21 20 17 15 16 20 20 24 26
10 10 11 10 11 11 10 12 14 14 16 16 16 16 16 16 16 14 16 16 17 18 18 15 18 17 17 21 21 22 20 21 19 18 20 19 18 15 16 16 15 15 16 18 19
9 9 10 10 8 10 11 12 13 13 16 16 15 15 16 16 16 15 16 16 16 16 16 18 18 19 19 19 19 19 18 18 16 17 16 18 16 16 15 15 14 14 14 15 17

GFSSW_850_temp_093.txt.gz
Temp
18 18 19 19 19 20 20 21 21 21 22 22 23 23 24 25 25 26 27 27 27 27 25 25 22 22 21 20 21 21 26 28 29 29 30 29 29 27 26 26 25 24 24 23 23
17 18 18 18 19 19 20 20 21 21 22 22 23 23 23 24 25 27 26 26 27 26 25 25 23 20 20 22 22 24 26 28 29 30 30 30 29 30 27 26 25 25 24 24 23
16 16 17 17 18 18 19 20 20 21 22 22 23 23 23 24 25 26 27 27 27 26 25 25 24 21 22 22 23 24 27 28 28 29 29 30 30 29 28 28 28 26 24 24 23
16 16 17 17 17 18 18 19 20 21 22 22 23 23 23 23 26 26 26 26 27 25 25 24 22 22 24 25 24 25 26 27 28 28 29 30 30 29 29 31 28 29 28 25 24
15 16 16 17 17 18 19 19 20 20 21 22 22 23 22 22 25 27 27 26 26 25 24 24 22 23 25 25 25 25 27 28 28 28 28 28 29 30 28 30 28 26 26 26 24
15 15 15 16 17 17 18 19 20 21 21 22 22 22 21 21 25 25 26 25 24 24 24 24 24 24 25 26 26 28 27 28 28 29 28 30 30 28 30 29 27 27 26 27 26
15 15 15 16 16 17 18 19 19 21 21 21 22 22 21 23 24 24 24 24 23 23 23 24 24 24 24 26 25 26 27 29 29 29 30 30 31 30 30 28 28 27 29 23 24
14 15 15 16 16 17 18 19 20 20 20 20 21 21 21 23 23 23 23 24 24 23 23 24 23 23 23 25 26 26 26 27 31 29 29 29 31 32 30 28 28 27 25 24 22
13 14 14 15 16 17 19 19 20 19 19 20 20 20 21 23 23 23 23 23 23 24 24 23 22 24 23 25 26 25 26 27 28 28 29 29 29 31 29 29 29 27 25 25 22
13 13 15 15 16 17 19 20 19 19 19 20 19 19 23 23 22 22 23 23 23 23 22 21 23 25 24 25 25 26 26 26 26 29 28 29 29 30 30 28 29 28 25 25 23
13 14 15 15 17 17 19 19 19 19 19 19 19 20 24 23 22 22 22 23 23 22 24 22 24 24 25 26 27 27 26 26 26 28 27 28 28 29 30 30 30 28 26 25 25
14 14 15 16 17 17 17 17 15 14 15 20 20 21 23 22 21 23 22 22 22 24 23 23 23 24 25 26 25 26 26 26 26 27 26 28 28 29 30 29 29 29 27 25 25
14 14 15 16 17 17 17 16 16 15 15 19 20 21 22 21 21 23 22 22 23 23 24 24 26 24 24 25 24 25 25 26 26 27 27 26 27 28 30 29 28 29 28 26 25
14 13 15 16 17 17 16 16 16 16 19 22 22 22 22 21 21 23 23 23 23 23 23 24 25 24 24 24 25 25 26 26 26 26 26 26 26 28 29 29 29 30 28 27 25
14 14 15 16 16 17 16 16 17 16 22 22 22 22 22 22 23 24 23 22 23 24 23 25 24 24 24 25 26 26 26 26 26 26 25 27 26 28 28 29 31 31 31 30 29
14 14 15 16 17 17 17 17 17 20 21 21 21 21 22 22 22 22 22 22 22 23 23 24 23 24 26 26 26 27 26 24 23 25 25 27 26 28 29 29 31 31 30 31 32
14 15 16 17 17 17 17 17 19 20 19 20 20 21 20 21 23 23 22 23 23 22 23 24 25 25 25 25 25 25 25 24 24 24 25 25 25 27 30 30 29 31 30 29 29
15 16 17 17 17 17 17 19 19 18 19 20 20 20 21 21 23 22 23 23 23 22 23 23 24 25 26 26 26 25 26 24 23 24 26 23 26 28 29 28 27 26 27 27 26
15 16 16 17 16 17 17 19 19 18 19 19 20 20 21 21 21 22 22 22 23 23 21 23 24 25 25 27 27 23 24 26 23 22 23 26 27 28 28 29 29 26 25 25 25
15 16 16 16 16 16 18 16 17 17 18 18 18 19 20 21 21 22 22 22 22 23 21 23 22 25 26 26 25 26 26 25 24 21 22 25 26 26 28 29 27 25 22 21 21
15 15 15 16 16 16 18 16 16 17 17 18 18 19 19 19 20 21 21 23 22 22 22 22 22 25 24 25 25 25 25 24 26 23 24 24 26 27 26 25 23 23 20 20 20
14 16 15 15 16 11 16 15 15 18 17 18 18 18 19 19 20 21 21 21 21 21 22 21 22 23 25 24 24 24 24 25 24 21 24 24 26 25 24 23 22 22 20 19 19
12 13 14 15 17 16 15 16 16 18 18 19 19 19 19 19 19 20 20 21 21 21 21 22 22 23 24 24 24 23 22 24 23 22 25 25 26 24 22 22 19 20 20 19 17
12 15 13 14 12 15 15 16 16 16 17 17 18 18 18 19 18 19 20 21 20 21 19 19 20 21 22 22 22 21 22 21 21 22 25 26 27 26 21 19 18 17 18 19 19
11 11 9 14 13 13 13 14 16 16 16 16 18 18 17 18 18 18 19 20 21 20 20 21 20 20 22 22 22 22 22 21 21 21 22 26 24 19 17 16 16 16 16 17 18
9 10 9 10 9 12 12 14 15 15 15 17 17 17 17 18 18 18 18 18 19 21 20 19 20 20 21 22 22 22 21 21 21 20 21 22 22 16 15 15 16 16 16 16 16
9 9 9 9 10 12 14 14 14 13 15 15 16 16 17 18 16 16 16 16 17 17 17 17 19 20 20 21 22 22 20 19 19 20 18 19 18 15 15 17 17 16 16 17 16

GFSSW_850_temp_096.txt.gz
Temp
17 18 18 18 19 19 20 20 21 21 22 22 23 23 24 24 25 26 26 27 27 27 26 21 21 22 22 24 24 26 31 33 33 33 33 34 34 33 30 31 28 28 28 27 25
17 17 17 18 18 19 20 20 21 21 21 22 22 23 23 24 25 26 26 26 26 27 24 23 23 23 24 26 27 28 32 33 34 34 33 33 33 33 32 31 30 28 27 26 23
16 16 17 17 18 19 19 20 20 21 21 22 22 22 23 23 25 27 26 27 27 26 23 24 25 24 27 28 29 30 31 33 33 33 32 33 33 33 33 33 32 30 27 25 24
16 16 16 17 17 18 19 19 20 21 22 22 22 22 22 23 29 26 26 26 26 24 23 24 25 26 28 29 30 29 31 31 32 32 32 33 32 33 33 34 32 31 29 26 25
16 16 16 17 17 18 18 19 20 21 22 22 22 22 22 23 26 25 26 25 25 22 23 25 26 27 29 30 30 30 31 31 31 32 31 31 33 33 33 33 31 31 28 26 26
15 15 16 16 17 17 18 19 19 20 21 21 22 21 21 24 24 24 25 25 23 23 25 25 27 27 28 29 30 30 31 31 31 32 31 32 33 33 34 33 32 29 29 28 27
15 15 15 16 17 18 19 19 20 20 20 21 21 21 21 24 23 23 23 22 22 23 25 25 26 26 28 29 29 29 30 32 32 32 33 32 33 34 34 32 32 30 29 28 28
15 15 15 16 17 18 19 20 20 20 20 20 21 21 24 23 23 23 22 23 22 23 24 25 24 25 26 27 28 30 31 30 33 34 33 32 32 35 34 33 32 32 31 29 28
15 15 16 16 17 19 19 20 20 20 20 20 20 20 25 23 23 23 23 23 24 23 23 23 24 26 28 28 29 30 29 31 32 34 32 32 32 34 33 33 32 32 32 30 28
15 15 16 16 17 18 19 20 20 20 20 20 21 21 24 24 23 22 23 23 24 24 23 23 25 28 29 29 28 30 31 31 31 33 33 32 32 33 32 33 33 33 33 32 29
14 15 16 16 17 18 20 18 20 21 20 21 22 22 24 22 22 22 22 23 23 24 27 27 27 28 29 30 30 30 30 30 31 32 31 31 31 32 32 32 33 33 34 32 29
14 15 16 16 18 18 18 17 15 16 20 21 21 22 22 22 24 24 23 25 25 26 28 28 26 29 30 29 29 29 29 29 31 31 31 31 31 32 32 33 33 33 34 33 31
15 15 16 16 17 18 17 17 17 16 20 23 22 23 23 22 24 25 24 25 26 27 28 27 29 30 28 27 27 28 29 29 29 31 32 31 30 31 33 33 33 33 33 33 31
15 15 16 17 17 17 15 17 17 17 25 25 26 24 24 24 25 24 24 25 26 27 28 28 29 29 28 27 28 28 30 29 29 29 28 32 29 31 32 32 34 34 34 33 31
15 15 16 16 17 15 17 17 17 17 26 25 26 23 25 25 25 26 24 24 26 27 26 28 27 27 27 28 29 28 29 29 29 29 29 30 29 30 32 31 33 34 35 34 33
15 15 17 18 17 17 17 17 17 23 25 24 25 25 27 26 26 26 25 24 25 26 27 27 27 27 28 28 29 29 28 28 28 28 27 29 29 30 31 32 33 35 35 34 34
15 16 17 17 16 17 17 16 24 25 24 24 24 25 26 26 27 27 27 27 27 26 27 28 29 29 28 27 29 28 28 26 26 27 27 29 29 30 32 33 33 33 33 34 33
16 16 17 17 17 17 17 23 23 23 23 24 24 25 25 25 26 26 27 26 26 26 26 27 27 28 29 28 28 28 28 26 24 24 24 26 27 29 32 33 32 32 31 31 31
16 16 16 17 17 17 19 24 24 22 22 22 24 24 25 25 25 26 26 26 26 26 24 26 27 29 29 30 30 27 26 29 26 27 26 26 27 31 32 32 32 31 30 29 27
16 15 15 16 17 17 22 20 22 22 22 22 23 23 24 24 25 25 25 25 25 26 26 26 24 29 29 29 29 29 29 27 27 23 24 25 27 28 30 31 31 30 29 27 25
15 17 16 16 17 19 23 22 22 21 21 22 22 23 23 23 24 25 25 26 25 25 26 26 25 27 28 28 28 28 28 27 28 26 24 26 28 31 30 31 29 30 27 25 24
13 20 16 16 20 20 22 21 18 22 21 22 22 22 23 23 23 24 24 24 24 24 24 25 25 25 27 29 28 28 27 27 27 26 27 27 28 32 30 30 27 27 25 21 21
14 16 15 16 21 22 20 21 20 22 22 22 22 22 22 22 22 23 24 24 23 24 24 24 25 24 26 28 27 27 26 27 27 27 25 26 27 31 28 28 25 24 23 21 19
13 19 17 16 17 20 20 21 21 19 20 20 22 22 22 22 23 22 23 24 23 23 20 22 24 23 24 25 26 25 26 26 25 25 26 27 28 30 27 24 22 20 20 20 21
13 17 14 20 19 19 18 20 20 20 20 20 21 22 21 21 22 22 23 23 23 23 23 23 21 23 24 25 25 26 25 26 26 26 25 26 27 28 21 18 18 18 18 18 19
13 15 14 16 15 17 14 19 20 21 20 21 20 21 21 20 21 20 21 21 21 23 23 23 21 23 23 24 26 25 25 26 25 25 25 26 25 21 18 20 19 21 21 19 17
9 10 12 14 17 17 20 19 19 18 19 19 19 20 20 21 19 19 20 20 21 21 21 20 21 22 22 24 25 23 25 25 24 24 23 23 22 20 20 21 19 19 20 20 18

GFSSW_850_temp_102.txt.gz
Temp
18 18 18 18 19 19 20 20 21 21 21 22 22 23 24 24 25 26 26 26 27 27 27 27 24 25 27 28 29 30 31 20 19 24 25 35 37 36 35 34 34 33 32 29 27
18 18 18 18 18 19 20 20 21 21 22 22 22 22 23 24 25 26 27 27 27 27 27 25 26 27 28 30 31 33 32 21 22 22 20 32 36 36 37 35 33 33 31 29 27
18 18 18 18 19 20 20 21 21 21 22 23 22 22 23 23 24 28 28 28 27 27 26 27 28 29 30 31 32 33 33 35 27 24 30 36 36 36 36 36 31 22 30 28 27
18 18 19 19 20 20 21 21 21 21 21 22 22 22 23 23 28 27 27 27 27 27 25 28 29 30 31 32 33 33 34 35 35 35 35 36 35 36 36 36 32 30 27 29 28
19 19 20 20 20 21 21 21 21 21 21 22 22 22 22 23 26 26 27 27 27 27 25 28 29 30 31 33 33 34 35 35 34 35 35 35 35 35 35 36 36 31 29 29 28
19 20 20 20 21 21 21 20 21 21 21 21 21 22 22 25 28 26 25 27 26 26 26 28 29 30 31 32 32 33 33 34 34 34 34 34 35 35 35 36 36 35 32 31 29
19 19 20 20 20 20 21 21 21 22 21 21 21 22 21 26 27 27 26 25 25 26 27 29 29 30 31 32 32 32 32 33 34 34 35 35 34 35 35 36 36 35 34 32 30
18 19 19 19 19 20 21 21 22 21 21 21 22 21 25 27 27 27 26 27 26 27 28 29 29 30 30 30 31 31 32 31 33 34 35 35 33 36 36 36 36 35 34 33 32
18 18 19 19 20 20 21 22 22 22 22 22 22 21 28 27 26 27 27 27 28 27 28 28 28 29 29 30 29 31 30 31 32 35 35 35 34 37 36 36 35 34 35 34 33
18 18 19 19 20 21 21 22 22 22 22 22 22 24 26 29 28 27 27 27 28 28 29 28 28 29 29 29 27 30 31 32 32 34 35 35 35 36 36 36 36 36 35 35 35
18 18 19 19 20 20 22 23 23 23 22 26 27 28 29 28 27 27 27 27 28 28 29 30 29 28 29 31 31 31 31 31 32 34 33 33 34 35 36 36 36 36 36 35 35
18 18 19 19 20 20 21 22 20 20 22 26 27 27 28 27 29 29 28 28 29 28 30 30 29 31 32 32 32 31 31 31 32 33 33 33 32 34 35 35 35 35 35 35 35
17 18 19 19 20 21 21 20 20 21 23 28 28 29 29 28 29 30 29 29 30 30 31 30 32 33 33 32 31 31 31 31 31 32 33 32 31 33 34 35 34 34 35 35 34
17 18 18 20 20 21 22 20 21 21 25 29 29 29 28 29 30 30 29 29 30 30 31 31 32 32 32 31 31 30 33 32 31 31 29 32 30 32 33 34 35 35 35 35 35
17 18 18 19 20 21 20 20 20 21 26 30 30 28 29 30 30 30 29 29 29 30 31 31 31 31 31 31 32 30 32 31 31 30 30 30 30 31 31 31 32 30 32 35 35
17 18 19 18 18 19 20 20 21 25 27 29 31 30 30 30 31 30 30 29 29 30 31 31 32 32 32 32 31 32 31 30 31 30 29 30 28 28 28 27 29 30 31 32 35
17 18 19 19 20 19 20 22 25 26 30 30 30 31 31 31 32 31 30 30 30 28 29 31 32 33 32 31 32 31 30 28 28 29 29 31 29 29 29 30 30 29 29 31 34
18 18 19 19 18 19 20 24 24 30 30 31 30 30 29 31 31 31 30 30 31 29 29 29 29 31 32 31 30 30 30 28 26 27 28 30 27 29 31 30 29 29 30 31 33
17 18 18 20 19 19 22 24 28 29 29 28 29 29 30 30 29 30 30 30 31 29 27 27 28 31 31 32 31 30 29 31 29 29 29 29 28 29 30 30 30 30 29 24 22
17 19 20 21 20 20 23 23 27 29 28 28 27 29 28 30 29 29 30 31 29 30 29 28 26 29 31 31 32 31 31 29 29 26 26 28 25 28 27 27 29 28 23 19 23
16 20 21 21 20 21 23 26 28 28 26 27 27 28 28 28 28 28 29 30 29 29 28 28 27 27 29 29 30 30 29 29 27 26 25 26 27 24 24 24 20 15 13 14 22
15 21 21 21 22 24 25 27 24 27 27 26 27 26 27 28 27 27 28 29 28 27 26 27 26 25 27 29 30 30 26 27 25 22 25 24 25 25 22 22 20 16 14 15 18
16 20 22 21 22 25 27 28 27 27 27 27 27 27 27 26 25 27 27 29 28 27 26 26 24 23 25 28 29 27 28 26 24 25 23 21 25 25 24 23 19 21 18 18 21
15 22 23 22 22 23 24 25 26 26 26 26 26 26 26 25 26 25 26 28 27 27 24 25 24 23 23 25 26 26 27 28 27 25 25 25 25 22 19 19 19 19 22 21 20
16 21 22 23 24 24 24 25 25 25 26 25 25 25 25 24 25 25 26 27 28 22 26 25 23 24 25 26 26 26 26 27 27 27 26 26 25 19 16 16 15 15 17 19 18
15 18 19 20 21 22 21 23 23 25 25 26 25 25 26 25 24 24 25 25 24 25 24 25 23 23 23 25 25 25 27 27 28 28 28 26 20 17 16 16 16 16 18 19 16
16 16 17 18 21 22 23 23 24 25 25 25 25 25 25 25 23 23 23 23 24 23 23 23 23 22 22 24 25 24 26 27 26 26 23 23 20 17 19 21 21 20 19 18 18

GFSSW_850_temp_105.txt.gz
Temp
19 19 19 19 19 20 21 21 22 22 22 23 23 23 24 24 25 25 27 28 28 27 27 27 26 24 25 25 27 28 17 20 22 22 21 27 27 29 33 32 28 30 27 26 25
19 20 20 20 21 21 21 21 22 22 23 23 23 23 24 24 25 26 29 28 28 27 27 27 25 25 25 27 28 28 26 21 23 23 22 24 27 29 33 32 30 28 28 26 25
19 20 20 20 21 21 21 21 21 22 22 23 23 23 23 23 24 27 28 28 28 27 27 27 26 27 27 29 30 30 29 28 25 25 28 27 27 28 32 31 30 28 27 26 25
19 20 20 20 21 21 21 21 21 21 21 22 23 23 23 23 24 27 28 28 28 27 27 26 27 28 28 28 31 29 31 32 29 25 26 27 27 27 33 32 30 31 28 26 26
19 20 20 21 21 21 21 21 22 22 22 22 22 22 22 22 25 26 27 27 27 27 28 26 27 29 27 29 30 30 30 32 32 30 27 30 31 33 33 31 31 31 28 27 26
19 19 20 21 21 21 21 21 22 22 22 22 22 22 22 21 26 27 26 27 27 27 27 26 27 29 29 29 29 31 31 31 32 32 33 32 32 33 34 34 28 29 30 27 27
19 19 20 21 21 21 22 22 22 22 21 22 22 21 21 25 27 27 26 26 26 26 26 27 28 29 29 28 30 30 28 29 30 31 31 32 30 31 34 35 30 28 28 28 27
19 19 20 20 21 22 22 22 22 22 22 22 22 21 23 27 27 27 27 27 26 26 26 27 28 28 29 30 29 27 27 25 29 30 31 31 28 31 35 35 34 28 28 28 28
18 19 20 20 21 22 22 22 23 22 22 22 21 21 23 27 27 27 27 27 27 27 27 28 28 28 28 25 23 25 24 25 28 31 31 31 29 31 35 35 33 32 30 29 28
18 19 19 20 21 22 22 23 23 23 22 22 22 20 26 28 28 28 28 28 28 28 28 28 28 24 23 23 22 23 25 26 28 30 31 30 29 30 33 33 35 33 34 31 31
18 19 20 20 21 21 22 23 23 22 22 23 25 26 28 28 28 28 27 28 27 28 25 28 24 22 24 25 26 27 27 27 28 30 29 29 29 29 31 32 32 34 33 33 31
18 19 20 21 21 21 21 21 20 20 21 24 25 26 28 28 28 28 28 28 28 25 26 25 23 26 28 28 28 28 27 26 28 29 29 27 27 29 30 29 32 33 34 34 34
18 19 20 21 21 21 21 21 21 21 21 24 26 28 29 28 29 29 29 28 27 26 27 25 27 30 30 29 29 27 26 27 27 29 28 27 26 26 29 31 32 33 33 34 34
18 19 19 21 21 21 21 21 21 21 19 27 28 29 29 29 28 30 29 29 29 27 28 28 30 30 30 29 29 25 28 29 28 25 23 28 25 25 27 27 27 29 30 30 31
18 18 19 19 20 20 20 20 21 21 22 28 29 29 29 29 30 30 30 29 27 27 27 26 28 28 28 29 30 27 28 28 28 25 25 26 23 24 28 26 26 28 30 30 31
18 18 19 19 20 20 20 21 21 20 23 29 30 29 28 29 30 30 29 29 29 28 28 27 30 29 29 31 31 30 28 26 25 24 22 25 24 24 25 27 26 28 29 30 29
18 19 18 19 20 20 21 21 20 21 30 28 29 30 28 29 29 29 29 28 25 24 25 27 28 30 32 30 30 29 24 20 20 20 22 24 24 24 26 27 26 26 28 26 28
18 19 20 20 21 20 20 20 21 27 28 30 28 28 27 29 29 30 29 27 28 28 25 24 23 27 29 28 27 26 25 20 22 21 23 24 25 22 21 19 18 21 22 25 27
18 20 21 21 20 20 20 19 24 26 28 27 27 26 27 29 29 29 28 27 28 27 25 24 24 27 28 29 28 26 24 25 23 24 22 24 25 24 21 19 19 18 18 20 25
17 19 22 21 20 20 19 20 23 27 28 27 25 27 25 27 28 28 27 29 29 28 25 24 21 25 28 28 28 27 27 23 21 21 20 22 21 19 18 18 18 18 18 20 24
16 17 21 21 21 21 18 22 24 27 27 26 25 24 25 25 26 26 27 28 27 26 25 25 22 22 25 24 24 25 23 23 22 21 20 19 20 20 20 18 17 16 19 20 21
15 17 21 22 21 22 20 23 26 27 27 27 26 25 25 25 24 25 26 27 28 27 25 24 22 19 21 24 26 26 25 23 19 20 19 19 20 21 20 19 17 17 18 19 19
13 16 21 21 19 20 22 24 25 27 26 26 26 26 26 25 23 25 25 27 27 27 24 24 20 18 19 21 25 23 24 24 21 20 20 19 19 21 19 19 18 16 17 17 17
12 17 21 22 22 21 20 22 24 26 26 26 25 24 23 22 23 23 24 27 27 27 25 24 20 19 18 20 22 22 24 24 22 21 20 20 22 19 17 17 17 17 17 18 18
13 17 19 19 19 20 20 21 22 22 24 25 24 24 23 21 22 22 24 24 25 24 23 21 20 20 21 23 23 23 23 24 23 23 22 19 18 17 17 15 16 17 18 17 17
12 16 17 17 19 19 19 20 22 23 23 23 23 25 24 21 22 20 20 20 22 21 21 20 18 19 19 22 23 23 24 24 24 22 21 20 17 15 17 17 16 17 18 18 18
13 14 15 16 18 18 19 21 23 23 24 24 24 22 23 23 23 22 22 22 21 19 18 18 18 18 18 20 21 20 20 20 18 17 19 17 17 16 17 16 13 15 17 18 18

GFSSW_850_temp_111.txt.gz
Temp
19 19 20 20 20 21 21 21 22 22 23 23 23 24 24 24 24 25 26 27 27 26 25 25 25 22 22 22 22 22 19 21 23 23 24 26 26 27 27 28 27 26 25 25 23
18 19 19 20 20 21 21 21 22 22 23 23 23 24 24 24 25 26 27 27 26 26 25 26 25 22 22 22 22 20 18 21 22 23 24 27 27 28 25 26 25 26 27 26 23
18 19 19 20 20 21 21 21 21 22 22 22 23 23 24 24 25 26 27 27 26 26 25 25 24 23 22 23 24 22 21 23 23 25 26 24 25 27 26 25 27 26 25 25 22
18 19 19 20 20 21 21 21 21 22 22 23 23 23 23 24 25 26 27 27 27 25 25 25 24 23 23 23 25 24 25 26 26 26 24 24 25 26 26 27 29 28 28 26 22
18 19 19 20 20 21 21 21 21 21 22 22 22 22 23 23 26 26 26 26 27 26 25 25 24 24 24 24 25 25 26 27 28 28 26 26 25 25 26 28 28 27 26 25 24
18 19 19 20 21 21 22 21 22 22 22 22 22 22 22 22 26 26 26 26 26 26 26 25 25 26 25 25 25 27 26 26 27 27 27 24 25 25 29 30 29 26 25 23 21
18 19 20 20 21 22 22 22 23 23 23 22 22 22 22 26 26 26 26 26 26 26 26 26 26 25 25 25 26 27 25 24 26 28 26 27 26 26 31 29 27 25 24 23 24
19 19 20 21 22 22 22 23 24 23 23 22 21 22 25 26 26 26 26 26 26 26 26 26 26 26 25 26 25 25 22 22 24 26 27 27 24 26 31 29 28 25 24 23 25
19 20 20 21 22 22 23 23 23 23 22 23 22 21 25 26 27 27 27 26 26 27 26 26 25 26 25 22 20 19 21 22 23 25 26 27 24 26 29 29 28 25 24 24 24
19 20 20 21 21 22 23 23 23 22 22 23 22 22 26 26 27 27 27 27 27 27 26 25 25 21 18 19 21 22 22 22 22 24 24 24 23 24 27 28 28 27 24 24 24
19 20 21 21 21 21 23 23 22 22 22 22 22 22 25 26 27 27 27 27 27 27 23 24 21 20 21 20 22 22 21 21 22 24 24 23 22 25 26 27 28 27 25 24 24
19 20 21 21 21 21 21 20 18 19 19 23 23 22 26 26 25 27 27 27 26 24 24 21 21 22 23 22 21 21 21 21 22 23 21 23 25 24 24 26 27 27 25 25 25
19 19 20 21 22 21 21 20 20 20 18 22 24 25 27 26 27 28 28 27 25 24 23 21 24 25 24 24 23 21 21 21 22 24 24 25 22 22 24 25 26 26 27 26 26
18 19 20 21 21 21 21 20 20 20 16 23 25 27 27 27 27 28 28 28 25 25 23 22 24 25 24 24 23 24 23 24 25 23 22 23 21 22 19 21 21 22 23 24 25
18 18 19 20 20 20 21 21 21 21 22 26 27 28 28 27 27 28 29 28 26 26 25 24 25 25 24 25 26 24 25 25 25 21 22 22 19 21 17 19 19 19 20 22 24
18 18 19 20 21 20 21 21 21 19 23 26 27 26 26 27 27 28 28 28 27 26 24 23 26 26 26 26 26 25 24 20 17 17 19 21 20 19 18 19 17 19 18 18 19
19 19 20 20 20 21 21 21 18 20 24 24 25 24 25 25 26 26 26 25 23 23 22 22 25 25 25 24 23 21 19 18 20 18 19 19 20 19 20 19 18 17 18 19 20
19 20 21 21 21 21 21 17 22 23 23 25 24 24 25 23 24 24 25 23 23 22 20 21 22 25 25 24 24 22 19 18 20 18 19 19 20 20 20 20 19 19 18 19 20
19 21 21 21 21 21 21 17 20 22 22 22 22 22 21 22 24 22 22 22 22 22 22 21 22 23 24 25 23 22 20 20 18 17 18 18 21 21 19 19 19 18 18 19 19
18 20 20 20 21 20 16 16 18 21 22 21 23 22 22 22 22 20 22 23 24 23 21 22 21 21 23 24 22 23 21 19 15 19 20 18 20 19 20 19 17 16 16 18 19
17 18 20 20 20 20 15 15 18 22 22 22 22 23 22 22 22 22 23 24 23 24 22 20 19 21 21 21 21 18 19 18 15 15 17 16 17 18 19 19 17 16 17 16 17
15 12 19 19 18 11 14 18 21 21 22 20 21 22 22 22 21 22 23 23 24 24 23 20 16 18 21 20 19 20 20 16 15 16 15 15 15 17 18 17 17 17 17 16 15
12 14 19 19 14 12 14 17 19 20 20 20 21 22 22 22 22 21 22 23 24 20 21 21 16 16 17 18 18 21 20 19 14 12 16 15 16 17 16 16 17 16 17 17 16
12 9 17 17 16 14 14 16 17 21 20 20 20 21 20 21 20 21 20 22 22 21 20 19 14 16 15 18 18 19 19 20 16 14 15 15 17 16 16 15 15 17 17 17 17
11 10 12 10 12 12 14 15 17 17 19 20 19 19 19 18 17 18 18 18 20 19 20 17 18 16 16 17 18 19 19 19 18 16 16 18 16 17 16 14 15 15 15 16 16
11 11 12 12 12 13 13 14 15 16 17 17 19 18 17 18 18 18 18 18 18 17 19 14 16 17 17 18 19 18 19 18 18 18 17 17 16 16 16 15 15 15 15 15 16
9 10 11 11 10 12 12 13 14 14 17 18 18 18 19 18 20 21 21 20 18 18 16 15 14 14 16 17 16 15 17 17 17 16 16 15 16 14 14 14 15 15 14 14 15